User: anonymous   Login
Location: Columbia
(38.9520°N, 92.3340°W)
Time: 02:06:46
(UTC-05:00)
Language:

Iridium 52 - Orbit

View from above orbital plane
View from above orbital plane
View from above satellite
View from above satellite

Ground track
Ground track

The orbit data is extracted from the following two-line orbital elements,

1 25169U 98010A   16176.42900273  .00000110  00000-0  32070-4 0  9997
2 25169  86.3976 139.9454 0002220  85.5928 274.5521 14.34218220960505
Epoch (UTC): 24 June 2016 10:17:45
Eccentricity: 0.0002220
inclination: 86.3976°
perigee height: 776 km
apogee height: 779 km
right ascension of ascending node: 139.9454°
argument of perigee: 85.5928°
revolutions per day: 14.34218220
mean anomaly at epoch: 274.5521°
orbit number at epoch: 96050

The dashed part of the orbit path shows where the satellite is in the earth's shadow,  

DLR